CW8728 Weather Reports


Display with metric or nautical units.
time (UTC)temp
F
wind
direction
speed
MPH
gust
MPH
rain 1hr
in
rain 24hr
in
rain mn
in
humidity
%
barometer
mb
20200225130512 31 360 0.0 0.0 0.01 0.46 0.02 94 1009.0
20200225130010 31 360 0.0 0.0 0.01 0.47 0.02 94 1009.0
20200225125511 31 340 0.0 0.0 0.00 0.46 0.01 94 1008.9
20200225125011 31 340 0.0 0.0 0.00 0.46 0.01 94 1008.9
20200225124510 31 24 0.0 0.0 0.00 0.46 0.01 94 1008.8
20200225124010 31 9 0.0 0.0 0.00 0.46 0.01 94 1008.8
20200225123512 31 15 0.0 0.0 0.00 0.46 0.01 94 1008.8
20200225123013 31 17 0.0 0.0 0.00 0.46 0.01 94 1008.7
20200225122513 31 5 0.0 0.0 0.00 0.46 0.01 94 1008.6
20200225122012 31 5 0.0 0.0 0.00 0.46 0.01 94 1008.5
20200225121514 31 18 0.0 0.0 0.00 0.46 0.01 94 1008.4
20200225121013 32 5 0.0 0.0 0.00 0.46 0.01 94 1008.3
20200225120512 32 16 0.0 0.0 0.00 0.46 0.01 94 1008.3
20200225120012 32 23 0.0 0.0 0.00 0.46 0.01 94 1008.3
20200225115513 32 15 0.0 0.0 0.00 0.46 0.01 94 1008.4
20200225115012 32 360 0.0 0.0 0.00 0.46 0.01 94 1008.3
20200225114512 32 360 0.0 0.0 0.01 0.46 0.01 94 1008.2
20200225114012 32 336 0.0 0.0 0.01 0.46 0.01 94 1008.1
20200225113512 32 339 0.0 0.0 0.01 0.46 0.01 94 1008.2
20200225113013 32 339 0.0 0.0 0.01 0.46 0.01 94 1008.2
20200225112513 33 5 0.0 0.0 0.01 0.46 0.01 94 1008.0
20200225112012 33 338 0.0 0.0 0.01 0.46 0.01 94 1007.9
20200225111513 33 340 0.0 0.0 0.01 0.46 0.01 94 1007.9
20200225111012 33 340 0.0 0.0 0.01 0.47 0.01 94 1007.8
20200225110513 33 9 0.0 0.0 0.01 0.47 0.01 94 1007.6
20200225110012 33 338 0.0 0.0 0.01 0.47 0.01 94 1007.6
20200225105513 34 293 0.0 0.0 0.01 0.47 0.01 94 1007.6
20200225105013 34 339 0.0 0.0 0.01 0.47 0.01 94 1007.4
20200225104512 34 338 0.0 0.0 0.00 0.46 0.00 94 1007.4
20200225104013 34 321 0.0 0.0 0.00 0.46 0.00 94 1007.3
20200225103512 34 316 0.0 0.0 0.00 0.47 0.00 94 1007.2
20200225103013 34 13 0.0 0.0 0.00 0.48 0.00 94 1007.0
20200225102513 34 5 0.0 0.0 0.00 0.49 0.00 94 1006.9
20200225102012 34 338 0.0 0.0 0.00 0.51 0.00 94 1006.8
20200225101514 34 24 0.0 0.0 0.00 0.53 0.00 94 1006.7
20200225100512 34 26 0.0 0.0 0.00 0.57 0.00 94 1006.6
20200225100012 34 5 0.0 0.0 0.00 0.59 0.00 94 1006.6
20200225095513 34 339 0.0 0.0 0.00 0.60 0.00 94 1006.5
20200225095012 34 360 0.0 0.0 0.00 0.62 0.00 94 1006.4
20200225094512 34 9 0.0 0.0 0.00 0.63 0.00 94 1006.2
20200225094012 35 22 0.0 0.0 0.00 0.64 0.00 94 1006.1
20200225093512 35 20 0.0 0.0 0.00 0.65 0.00 94 1006.1
20200225093013 35 17 0.0 0.0 0.00 0.66 0.00 94 1006.1
20200225092513 35 26 0.0 0.0 0.00 0.67 0.00 94 1006.1
20200225092012 35 13 0.0 0.0 0.00 0.68 0.00 94 1006.1
20200225091012 35 17 0.0 0.0 0.00 0.69 0.00 94 1006.0
20200225090513 35 360 0.0 0.0 0.00 0.70 0.00 94 1006.0
20200225090012 35 340 0.0 0.0 0.00 0.71 0.00 94 1006.1
20200225085513 35 340 0.0 0.0 0.00 0.72 0.00 94 1006.1
20200225085012 35 22 0.0 0.0 0.00 0.74 0.00 94 1006.1
20200225084513 35 5 0.0 0.0 0.00 0.75 0.00 94 1006.1
20200225084013 35 21 0.0 0.0 0.00 0.77 0.00 94 1006.1
20200225083512 35 13 0.0 0.0 0.00 0.78 0.00 94 1006.1
20200225083013 35 340 0.0 0.0 0.00 0.78 0.00 94 1006.1
20200225082513 35 13 0.0 0.0 0.00 0.79 0.00 94 1006.0
20200225082013 35 360 0.0 0.0 0.00 0.79 0.00 94 1006.0
20200225081512 35 18 0.0 0.0 0.00 0.79 0.00 94 1006.1
20200225081012 35 33 0.0 0.0 0.00 0.80 0.00 94 1006.0
20200225080513 35 17 0.0 0.0 0.00 0.80 0.00 94 1005.9
20200225080012 35 12 0.0 0.0 0.00 0.80 0.00 94 1005.9
20200225075512 36 11 0.0 0.0 0.00 0.81 0.80 94 1005.8
20200225075013 36 13 0.0 0.0 0.00 0.81 0.80 94 1005.8
20200225074512 36 22 0.0 0.0 0.00 0.81 0.80 94 1005.8
20200225074012 36 16 0.0 0.0 0.00 0.81 0.80 94 1005.7
20200225073513 36 20 0.0 0.0 0.00 0.81 0.80 94 1005.6
20200225073012 36 34 0.0 0.0 0.00 0.82 0.80 94 1005.6
20200225072512 36 13 0.0 0.0 0.00 0.82 0.80 94 1005.7
20200225072013 36 35 0.0 0.0 0.00 0.84 0.80 94 1005.6
20200225071513 36 13 0.0 0.0 0.00 0.84 0.80 94 1005.6
20200225071013 36 9 0.0 0.0 0.00 0.86 0.80 94 1005.6
20200225070512 36 5 0.0 0.0 0.00 0.86 0.80 94 1005.5
20200225070012 36 29 0.0 0.0 0.00 0.87 0.80 94 1005.4
20200225065512 36 19 0.0 0.0 0.00 0.87 0.80 94 1005.4
20200225065012 37 5 0.0 0.0 0.00 0.88 0.80 94 1005.4
20200225064512 37 360 0.0 0.0 0.00 0.88 0.80 94 1005.4
20200225064012 37 19 0.0 0.0 0.00 0.88 0.80 94 1005.4
20200225063512 37 360 0.0 0.0 0.00 0.89 0.80 94 1005.4
20200225063012 37 15 0.0 0.0 0.00 0.89 0.80 94 1005.3
20200225062512 37 25 0.0 0.0 0.00 0.89 0.80 94 1005.2
20200225062012 37 26 0.0 0.0 0.00 0.89 0.80 94 1005.1
20200225061513 37 9 0.0 0.0 0.01 0.90 0.80 94 1005.2
20200225061012 37 15 0.0 0.0 0.01 0.90 0.80 94 1005.1
20200225060513 37 29 0.0 0.0 0.01 0.91 0.80 94 1005.0
20200225060012 37 25 0.0 0.0 0.01 0.92 0.80 94 1004.9
20200225055513 37 15 0.0 0.0 0.01 0.93 0.80 94 1004.7
20200225055012 37 41 0.0 0.0 0.01 0.94 0.80 94 1004.8
20200225054513 37 19 0.0 0.0 0.01 0.94 0.80 94 1004.8
20200225054012 37 37 0.0 0.0 0.01 0.95 0.80 94 1004.7
20200225053512 37 48 0.0 0.0 0.01 0.96 0.80 94 1004.5
20200225053012 37 39 0.0 0.0 0.01 0.96 0.80 94 1004.5
20200225052012 37 30 0.0 0.0 0.02 0.97 0.80 94 1004.4
20200225051512 38 36 0.0 0.0 0.01 0.97 0.79 94 1004.3
20200225051014 38 28 0.0 0.0 0.01 0.97 0.79 94 1004.1
20200225050512 38 22 0.0 0.0 0.01 0.97 0.79 94 1004.3
20200225050012 38 25 0.0 0.0 0.01 0.97 0.79 94 1004.3
20200225045512 38 17 0.0 0.0 0.02 0.97 0.79 94 1004.4
20200225045012 38 49 0.0 0.0 0.02 0.97 0.79 94 1004.4
20200225044512 38 30 0.0 0.0 0.02 0.97 0.79 94 1004.4
20200225044012 38 39 0.0 0.0 0.02 0.97 0.79 94 1004.4
20200225043513 38 36 0.0 0.0 0.02 0.97 0.79 94 1004.4
20200225043012 38 43 0.0 0.0 0.02 0.97 0.79 94 1004.3
20200225042512 38 16 0.0 0.0 0.01 0.96 0.78 94 1004.4
20200225042012 38 25 0.0 0.0 0.01 0.96 0.78 94 1004.2
20200225041512 38 36 0.0 0.0 0.01 0.96 0.78 94 1004.3
20200225041013 38 19 0.0 0.0 0.01 0.96 0.78 94 1004.2
20200225040513 39 360 0.0 0.0 0.01 0.96 0.78 94 1004.2
20200225040013 39 18 0.0 0.0 0.01 0.96 0.78 94 1004.2
20200225035513 39 339 0.0 0.0 0.00 0.95 0.77 94 1004.2
20200225035012 39 12 0.0 0.0 0.00 0.95 0.77 94 1004.2
20200225034512 39 22 0.0 0.0 0.00 0.95 0.77 94 1004.1
20200225034012 40 15 0.0 0.0 0.00 0.95 0.77 94 1003.9
20200225033512 40 22 0.0 0.0 0.00 0.95 0.77 94 1003.9
20200225033012 40 27 0.0 0.0 0.00 0.95 0.77 94 1003.8
20200225032512 40 24 0.0 0.0 0.00 0.95 0.77 94 1003.8
20200225032012 40 18 0.0 0.0 0.00 0.95 0.77 94 1003.8
20200225031512 40 38 0.0 0.0 0.00 0.95 0.77 94 1003.6
20200225031012 40 32 0.0 0.0 0.00 0.95 0.77 94 1003.5
20200225030512 40 36 0.0 0.0 0.00 0.95 0.77 94 1003.3
20200225030012 40 23 0.0 0.0 0.00 0.95 0.77 94 1003.4
20200225025513 40 32 0.0 0.0 0.00 0.95 0.77 94 1003.3
20200225025013 40 29 0.0 0.0 0.00 0.95 0.77 94 1003.2
20200225024512 40 34 0.0 0.0 0.00 0.95 0.77 94 1003.1
20200225024012 40 47 0.0 0.0 0.00 0.95 0.77 94 1002.8
20200225023512 40 36 0.0 0.0 0.00 0.95 0.77 94 1002.8
20200225023013 40 38 0.0 0.0 0.00 0.95 0.77 94 1002.7
20200225022515 40 51 0.0 0.0 0.00 0.95 0.77 94 1002.7
20200225022012 40 62 0.0 0.0 0.00 0.95 0.77 94 1002.6
20200225021512 40 24 0.0 0.0 0.00 0.95 0.77 94 1002.6
20200225021011 40 28 0.0 0.0 0.00 0.95 0.77 94 1002.6
20200225020513 40 26 0.0 0.0 0.00 0.95 0.77 94 1002.5
20200225020012 40 38 0.0 0.0 0.00 0.95 0.77 94 1002.4
20200225015512 40 38 0.0 0.0 0.00 0.95 0.77 94 1002.5
20200225015012 40 28 0.0 0.0 0.00 0.95 0.77 94 1002.5
20200225014511 40 36 0.0 0.0 0.00 0.95 0.77 94 1002.5
20200225014012 40 32 0.0 0.0 0.00 0.95 0.77 94 1002.6
20200225013512 40 39 0.0 0.0 0.00 0.95 0.77 94 1002.5
20200225013012 40 36 0.0 0.0 0.00 0.95 0.77 94 1002.4
20200225012512 40 32 0.0 0.0 0.00 0.95 0.77 94 1002.4
20200225012013 40 26 0.0 0.0 0.00 0.95 0.77 94 1002.4
20200225011512 40 52 0.0 0.0 0.00 0.95 0.77 94 1002.3
20200225011012 40 45 0.0 0.0 0.00 0.95 0.77 94 1002.4
20200225010511 40 46 0.0 0.0 0.01 0.95 0.77 94 1002.3
20200225010012 40 41 0.0 0.0 0.01 0.95 0.77 94 1002.2
20200225005512 40 37 0.0 0.0 0.01 0.95 0.77 94 1002.1
20200225005012 40 49 0.0 0.0 0.02 0.95 0.77 94 1002.1
20200225004512 40 32 0.0 0.0 0.03 0.95 0.77 94 1002.0
20200225004011 40 48 0.0 0.0 0.04 0.95 0.77 94 1001.9
20200225003513 40 42 0.0 0.0 0.04 0.95 0.77 94 1001.9
20200225003013 40 44 0.0 0.0 0.04 0.95 0.77 94 1001.9
20200225002512 40 66 0.0 0.0 0.05 0.95 0.77 94 1001.9
20200225002012 40 51 0.0 0.0 0.05 0.95 0.77 94 1001.7
20200225001512 40 40 0.0 0.0 0.05 0.95 0.77 94 1001.6
20200225001011 40 42 0.0 0.0 0.05 0.95 0.77 94 1001.5
20200225000521 40 32 0.0 0.0 0.04 0.94 0.76 94 1001.4
20200225000012 40 49 0.0 0.0 0.04 0.94 0.76 94 1001.4
20200224235512 41 39 0.0 0.0 0.04 0.94 0.76 94 1001.4
20200224235012 41 38 0.0 0.0 0.03 0.93 0.75 94 1001.4
20200224234512 41 41 0.0 0.0 0.02 0.92 0.74 94 1001.5
20200224234012 41 51 0.0 0.0 0.01 0.91 0.73 94 1001.5
20200224233512 41 46 0.0 0.0 0.01 0.91 0.73 94 1001.4
20200224233012 41 44 0.0 0.0 0.01 0.91 0.73 94 1001.4
20200224232512 41 53 0.0 0.0 0.01 0.90 0.72 94 1001.3
20200224232012 41 48 0.0 0.0 0.01 0.90 0.72 94 1001.2
20200224231512 41 59 0.0 0.0 0.03 0.90 0.72 94 1001.1
20200224231012 41 46 0.0 0.0 0.06 0.90 0.72 94 1001.1
20200224230512 41 57 0.0 0.0 0.06 0.90 0.72 94 1001.0
20200224230011 41 63 0.0 0.0 0.06 0.90 0.72 94 1000.9
20200224225512 41 48 0.0 0.0 0.06 0.90 0.72 94 1000.9
20200224225012 41 51 0.0 0.0 0.06 0.90 0.72 94 1001.0
20200224224512 41 42 0.0 0.0 0.06 0.90 0.72 94 1000.8
20200224224012 41 51 0.0 0.0 0.06 0.90 0.72 94 1000.8
20200224223511 41 53 0.0 0.0 0.06 0.90 0.72 94 1000.8
20200224223012 41 53 0.0 0.0 0.06 0.90 0.72 94 1000.9
20200224222513 41 46 0.0 0.0 0.05 0.89 0.71 94 1000.9
20200224222012 41 61 0.0 0.0 0.05 0.89 0.71 94 1000.9
20200224221512 41 50 0.0 0.0 0.03 0.87 0.69 94 1000.8
20200224221012 41 61 0.0 0.0 0.00 0.84 0.66 94 1000.7
20200224220512 41 84 0.0 0.0 0.01 0.84 0.66 94 1000.5
20200224220012 41 53 0.0 0.0 0.02 0.84 0.66 94 1000.5
20200224215512 41 56 0.0 0.0 0.02 0.84 0.66 94 1000.4
20200224215012 41 43 0.0 0.0 0.02 0.84 0.66 94 1000.4
20200224214511 41 63 0.0 0.0 0.02 0.84 0.66 94 1000.4
20200224214012 41 59 0.0 0.0 0.02 0.84 0.66 94 1000.4
20200224213512 41 57 0.0 0.0 0.02 0.84 0.66 94 1000.4
20200224213012 41 55 0.0 0.0 0.02 0.84 0.66 94 1000.2
20200224212512 41 49 0.0 0.0 0.02 0.84 0.66 94 1000.2
20200224212012 41 46 0.0 0.0 0.02 0.84 0.66 94 1000.1
20200224211512 41 59 0.0 0.0 0.02 0.84 0.66 94 1000.1
20200224211012 41 74 0.0 0.0 0.02 0.84 0.66 94 1000.1
20200224210511 41 81 0.0 0.0 0.01 0.83 0.65 94 1000.0
20200224210012 41 74 0.0 0.0 0.00 0.82 0.64 94 999.9
20200224205512 41 64 0.0 0.0 0.00 0.82 0.64 94 999.8
20200224205012 41 49 0.0 0.0 0.00 0.82 0.64 94 1000.0
20200224204512 41 86 0.0 0.0 0.00 0.82 0.64 94 1000.0
20200224204012 41 76 0.0 0.0 0.00 0.82 0.64 94 1000.0
20200224203511 41 76 0.0 0.0 0.00 0.82 0.64 94 999.9
20200224203014 41 69 0.0 0.0 0.00 0.82 0.64 94 999.8
20200224202512 41 92 0.0 0.0 0.00 0.82 0.64 94 999.9
20200224202013 41 89 0.0 0.0 0.00 0.82 0.64 94 999.9
20200224201512 41 86 0.0 0.0 0.00 0.82 0.64 94 999.9
20200224201012 41 79 0.0 0.0 0.00 0.82 0.64 94 1000.0
20200224200513 41 92 0.0 0.0 0.00 0.82 0.64 94 1000.2
20200224200012 41 74 0.0 0.0 0.00 0.82 0.64 94 1000.0
20200224195512 41 79 0.0 0.0 0.00 0.82 0.64 94 1000.1
20200224195012 41 92 0.0 0.0 0.00 0.82 0.64 94 1000.1
20200224194512 41 66 0.0 0.0 0.00 0.82 0.64 94 1000.0
20200224194012 41 81 0.0 0.0 0.00 0.82 0.64 94 1000.0
20200224193511 41 83 0.0 0.0 0.01 0.82 0.64 94 1000.0
20200224193012 41 98 0.0 0.0 0.01 0.82 0.64 94 1000.1
20200224192512 41 94 0.0 0.0 0.01 0.82 0.64 94 1000.1
20200224192012 41 99 0.0 0.0 0.02 0.82 0.64 94 1000.2
20200224191512 41 94 0.0 0.0 0.02 0.82 0.64 94 1000.3
20200224191011 41 85 0.0 0.0 0.02 0.82 0.64 94 1000.4
20200224190512 41 83 0.0 0.0 0.02 0.82 0.64 94 1000.5
20200224190013 41 91 0.0 0.0 0.02 0.82 0.64 94 1000.6
20200224185512 41 103 0.0 0.0 0.02 0.82 0.64 94 1000.7
20200224185012 41 86 0.0 0.0 0.02 0.82 0.64 94 1000.7
20200224184512 41 86 0.0 0.0 0.02 0.82 0.64 94 1000.9
20200224184012 41 71 0.0 0.0 0.02 0.82 0.64 94 1000.9
20200224183512 41 101 0.0 0.0 0.01 0.81 0.63 94 1001.1
20200224183012 41 103 0.0 0.0 0.01 0.81 0.63 94 1001.3
20200224182512 41 92 0.0 0.0 0.01 0.81 0.63 94 1001.5
20200224182012 41 103 0.0 0.0 0.00 0.80 0.62 94 1001.6
20200224181512 41 74 0.0 0.0 0.00 0.80 0.62 94 1001.7
20200224181012 41 95 0.0 0.0 0.00 0.80 0.62 94 1001.8
20200224180512 41 85 0.0 0.0 0.00 0.80 0.62 94 1002.0
20200224180012 41 39 0.0 0.0 0.00 0.80 0.62 94 1002.1
20200224175511 41 111 0.0 0.0 0.00 0.80 0.62 94 1002.2
20200224175012 41 94 0.0 0.0 0.00 0.80 0.62 94 1002.4
20200224174512 41 102 0.0 0.0 0.00 0.80 0.62 94 1002.4
20200224174011 41 94 0.0 0.0 0.00 0.80 0.62 94 1002.6
20200224173512 41 115 0.0 0.0 0.00 0.80 0.62 94 1002.8
20200224173012 41 101 0.0 0.0 0.00 0.80 0.62 94 1002.9
20200224172512 41 101 0.0 0.0 0.00 0.80 0.62 94 1002.8
20200224172012 41 99 0.0 0.0 0.00 0.80 0.62 94 1003.0
20200224171512 41 93 0.0 0.0 0.00 0.80 0.62 94 1003.0
20200224171012 41 107 0.0 0.0 0.00 0.80 0.62 94 1003.1
20200224170512 41 94 0.0 0.0 0.01 0.80 0.62 94 1003.3
20200224170011 41 88 0.0 0.0 0.01 0.80 0.62 94 1003.4
20200224165512 41 105 0.0 0.0 0.01 0.80 0.62 94 1003.3
20200224165012 40 70 0.0 0.0 0.01 0.80 0.62 94 1003.3
20200224164511 40 98 0.0 0.0 0.01 0.80 0.62 94 1003.4
20200224164011 40 110 0.0 0.0 0.02 0.80 0.62 94 1003.0
20200224163512 40 105 0.0 0.0 0.02 0.80 0.62 94 1002.9
20200224163012 40 99 0.0 0.0 0.02 0.80 0.62 94 1003.0
20200224162512 40 107 0.0 0.0 0.02 0.80 0.62 94 1003.0
20200224162011 40 100 0.0 0.0 0.02 0.80 0.62 94 1003.2
20200224161512 40 90 0.0 0.0 0.03 0.80 0.62 94 1003.3
20200224161011 40 74 0.0 0.0 0.03 0.80 0.62 94 1003.3
20200224160511 40 77 0.0 0.0 0.02 0.79 0.61 94 1003.4
20200224160012 40 98 0.0 0.0 0.02 0.79 0.61 94 1003.6
20200224155513 40 102 0.0 0.0 0.02 0.79 0.61 94 1003.6
20200224155012 40 90 0.0 0.0 0.03 0.79 0.61 94 1003.7
20200224154512 40 94 0.0 0.0 0.03 0.79 0.61 94 1003.8
20200224154011 40 81 0.0 0.0 0.02 0.78 0.60 94 1003.9
20200224153511 40 87 0.0 0.0 0.03 0.78 0.60 94 1004.0
20200224153012 40 100 0.0 0.0 0.04 0.78 0.60 93 1004.1
20200224152512 40 69 0.0 0.0 0.05 0.78 0.60 93 1004.1
20200224152011 40 89 0.0 0.0 0.06 0.78 0.60 93 1004.2
20200224151512 40 99 0.0 0.0 0.06 0.77 0.59 93 1004.2
20200224151012 40 92 0.0 0.0 0.07 0.77 0.59 93 1004.4
20200224150511 40 88 0.0 0.0 0.07 0.77 0.59 93 1004.4
20200224150012 40 80 0.0 0.0 0.08 0.77 0.59 93 1004.5
20200224145512 40 79 0.0 0.0 0.08 0.77 0.59 93 1004.6
20200224145012 40 73 0.0 0.0 0.08 0.76 0.58 93 1004.6
20200224144512 40 78 0.0 0.0 0.08 0.76 0.58 93 1004.7
20200224144012 40 86 0.0 0.0 0.09 0.76 0.58 93 1004.7
20200224143512 40 82 0.0 0.0 0.09 0.75 0.57 93 1004.8
20200224143012 40 90 0.0 0.0 0.09 0.74 0.56 93 1005.0
20200224142512 40 92 0.0 0.0 0.10 0.73 0.55 93 1004.9
20200224142012 40 86 0.0 0.0 0.11 0.72 0.54 93 1004.9
20200224141512 40 82 0.0 0.0 0.12 0.71 0.53 93 1005.1
20200224141011 40 91 0.0 0.0 0.13 0.70 0.52 93 1005.1
20200224140512 40 93 0.0 0.0 0.16 0.70 0.52 93 1005.2
20200224140012 40 93 0.0 0.0 0.16 0.69 0.51 93 1005.3
20200224135511 40 94 0.0 0.0 0.16 0.69 0.51 94 1005.3
20200224135013 40 93 0.0 0.0 0.15 0.68 0.50 94 1005.3
20200224134512 40 94 0.0 0.0 0.15 0.68 0.50 94 1005.2
20200224134012 40 94 0.0 0.0 0.14 0.67 0.49 94 1005.2
20200224133512 40 94 0.0 0.0 0.13 0.66 0.48 94 1005.2
20200224133012 40 94 0.0 0.0 0.12 0.65 0.47 94 1005.2
20200224132511 40 92 0.0 0.0 0.10 0.63 0.45 94 1004.9
20200224132012 40 90 0.0 0.0 0.08 0.61 0.43 94 1004.7
20200224131512 40 97 0.0 0.0 0.06 0.59 0.41 94 1004.8
20200224131012 40 101 0.0 0.0 0.04 0.57 0.39 93 1004.9